Temperature
20 19 19 18 18 18 18 18 18 18 18 18 18 18 17 17 17 17 16 16 16 16 16 15 15 15 15 15 14 14 14 14 14 14 14 13 13 13 13 13 13 13 13
21 20 19 18 18 18 18 18 18 18 18 18 18 17 17 17 17 16 16 16 16 15 15 15 15 15 14 14 14 14 14 14 14 14 13 13 13 13 13 13 12 12 12
20 20 19 18 18 17 17 17 18 17 17 17 17 17 17 17 16 16 16 16 15 15 15 15 15 15 14 14 14 14 13 14 14 13 13 13 12 12 12 12 12 12 12
20 19 19 18 17 17 17 17 17 17 17 17 17 17 17 16 16 16 15 15 15 15 15 15 14 14 14 14 14 13 13 13 13 13 13 13 12 12 12 12 12 12 12
19 19 18 18 17 17 17 17 17 17 17 17 17 16 16 16 16 15 15 15 14 14 15 15 14 14 14 14 13 13 13 13 13 13 13 12 12 12 12 12 12 12 12
19 18 18 18 17 17 17 17 17 17 17 17 16 16 16 16 15 15 15 14 14 14 14 14 14 14 13 13 13 13 13 13 13 13 12 12 12 12 12 12 12 12 12
18 18 17 17 17 17 17 16 16 16 16 16 16 16 16 15 15 15 15 14 14 14 14 14 14 13 13 13 13 13 13 12 12 12 12 12 12 12 12 12 11 11 11
18 17 17 16 16 17 16 16 16 16 16 16 16 16 15 15 15 15 14 14 14 14 14 14 13 13 13 13 12 12 12 12 12 12 12 12 12 11 11 11 11 11 11
17 17 16 16 16 16 16 16 16 16 16 16 15 15 15 15 15 14 14 14 14 14 14 13 13 13 13 12 12 12 12 12 12 12 12 12 12 11 11 11 11 11 11
16 16 16 16 16 16 15 16 16 16 15 15 15 15 15 15 14 14 14 14 14 14 13 13 13 13 13 12 12 12 12 12 12 12 12 11 11 11 11 11 11 11 11
15 15 15 15 15 15 15 15 15 15 15 15 15 15 15 14 14 14 14 14 13 13 13 13 13 13 12 12 12 12 12 12 11 11 11 11 11 11 11 11 11 11 11
15 15 15 15 15 15 14 15 15 15 15 15 14 14 14 14 14 14 13 13 13 13 13 13 13 12 12 12 12 11 11 11 11 11 11 11 11 11 10 10 10 10 10
14 14 15 15 14 14 14 14 14 14 14 14 14 14 14 14 14 13 13 13 13 13 13 12 12 12 12 12 12 11 11 11 11 11 11 11 11 10 10 10 10 10 10
14 14 14 14 14 14 14 14 14 14 14 14 14 14 14 13 13 13 13 13 13 13 13 12 12 12 12 12 11 11 11 11 11 11 11 11 10 10 10 10 10 10 10
13 13 14 14 14 14 14 14 14 14 14 14 14 13 13 13 13 13 13 13 13 13 13 12 12 12 12 11 11 11 11 11 11 11 11 10 10 10 10 10 10 10 10
13 13 13 13 14 14 13 14 13 13 13 13 13 13 13 13 13 13 13 13 13 13 12 12 12 12 11 11 11 11 11 11 11 11 10 10 10 10 10 10 10 10 10
13 13 13 13 13 13 13 13 13 13 13 13 13 13 13 13 13 13 13 13 13 12 12 12 11 11 11 11 11 11 11 10 10 10 10 10 10 10 10 10 10 10 9
12 12 13 13 13 13 13 13 13 13 13 13 13 13 13 13 13 13 12 13 12 12 12 11 11 11 11 11 11 11 10 10 10 10 10 10 10 10 10 10 10 10 10
12 12 12 12 13 12 12 12 12 12 12 12 12 12 12 12 12 12 12 12 12 12 12 11 11 11 11 11 10 10 10 10 10 10 10 10 10 10 10 10 10 10 10
12 12 12 12 12 12 12 12 12 12 12 12 12 12 12 12 12 12 12 12 12 12 11 11 11 11 11 10 10 10 10 10 10 10 10 10 10 10 10 10 10 10 9
12 11 12 12 12 12 12 12 11 11 12 12 12 12 12 12 12 12 12 12 12 12 11 11 11 10 10 10 10 10 10 10 10 10 10 10 10 10 10 10 10 10 9
11 11 11 11 11 11 11 12 12 12 12 12 12 12 12 12 12 12 12 12 12 12 11 11 11 10 10 10 10 9 9 10 10 10 10 10 10 10 10 10 10 10 9
11 11 11 11 11 11 11 11 11 11 11 11 11 11 11 12 12 12 12 12 12 12 11 11 11 11 10 10 10 10 10 10 10 10 10 10 10 10 10 10 10 10 9
11 11 11 11 11 11 11 11 11 11 11 11 11 11 11 11 12 12 12 12 12 12 12 11 11 11 11 10 10 10 10 10 10 10 10 10 10 10 10 10 10 10 9
10 10 10 10 11 11 11 11 11 11 11 11 11 11 11 11 11 11 11 12 12 12 12 11 11 11 11 10 10 10 10 10 10 10 10 10 10 10 10 10 10 10 9
10 10 10 10 10 10 10 10 10 11 11 11 11 11 11 11 11 11 11 12 12 12 12 11 11 11 11 10 10 10 10 10 10 10 10 10 10 10 10 10 10 10 9
Wind_Speed
6 11 20 21 22 22 21 21 21 21 20 20 20 20 21 21 21 21 20 19 19 18 18 18 18 18 18 18 17 17 17 16 16 16 15 15 15 15 15 15 14 13 16
11 15 20 21 22 22 22 21 21 21 20 20 20 20 20 21 21 20 20 19 19 18 18 17 17 17 17 17 17 17 17 16 16 15 14 14 14 15 15 15 14 13 16
13 16 19 21 21 22 22 22 21 21 21 20 20 20 20 20 20 20 19 19 19 18 18 17 17 17 17 17 16 16 16 15 15 15 13 10 12 14 15 15 15 15 15
13 14 17 20 21 21 21 22 22 22 21 21 20 20 20 20 20 20 19 19 19 18 18 18 17 17 16 16 16 15 15 14 15 14 10 9 9 13 14 15 15 15 15
11 13 16 20 20 21 21 21 21 22 22 22 21 20 20 20 20 20 19 19 19 19 18 18 17 16 16 16 16 15 14 15 15 12 10 9 8 12 14 14 14 14 14
9 11 15 20 20 20 20 21 20 21 22 23 22 21 20 20 20 20 19 19 19 19 18 18 17 16 15 15 15 14 15 15 14 12 10 9 9 13 13 13 13 13 13
8 8 14 19 20 20 20 20 20 20 21 22 22 22 21 21 20 20 19 19 19 19 18 18 17 16 15 15 14 14 14 15 13 11 9 8 9 12 12 12 12 12 12
8 8 11 17 18 19 19 19 19 20 20 21 22 22 22 21 21 21 20 20 19 19 18 18 17 16 15 14 13 13 14 13 12 10 8 7 9 11 11 11 11 11 11
6 7 8 12 15 17 18 19 19 19 20 20 21 21 22 22 21 21 21 20 19 19 18 18 17 16 14 13 13 12 13 12 11 8 7 7 10 10 10 10 10 9 9
4 5 6 8 11 12 14 16 18 19 19 20 20 20 21 22 21 21 20 20 20 19 18 18 17 16 14 13 12 12 12 12 10 8 7 7 9 9 9 9 8 8 7
4 5 6 7 8 9 11 14 15 17 18 18 18 19 18 17 17 18 19 20 20 19 18 17 17 15 13 11 11 11 10 9 9 7 7 8 9 8 8 7 7 6 6
6 7 7 8 7 8 9 10 11 12 13 14 14 15 14 14 15 16 19 20 20 19 18 17 17 15 11 8 9 9 8 8 8 7 7 9 9 8 7 6 6 5 5
9 8 8 9 9 8 6 7 7 8 9 11 14 14 13 12 12 12 12 14 15 16 13 14 13 10 8 7 6 7 8 7 6 6 7 9 8 8 7 6 6 5 4
10 10 9 10 10 8 7 6 7 7 7 8 11 15 12 8 8 9 8 10 10 10 9 9 7 8 7 7 7 6 7 7 7 7 8 9 8 7 7 7 6 5 4
10 10 10 10 11 9 7 6 7 7 8 9 11 14 14 9 9 8 9 9 10 10 9 8 7 7 6 6 6 7 6 7 8 8 7 9 8 7 7 7 6 5 4
11 11 10 11 11 10 8 7 7 8 9 10 10 13 15 12 10 9 9 9 10 11 11 9 8 7 6 5 5 6 7 7 9 9 8 8 9 8 8 7 7 5 5
11 11 10 11 11 11 10 9 7 8 9 9 10 14 15 14 13 10 10 10 10 12 11 9 8 6 5 5 5 5 5 7 8 8 9 8 8 9 8 8 7 6 5
9 10 11 10 11 11 10 9 7 8 9 9 11 13 15 16 16 12 9 10 12 11 9 8 7 6 6 5 4 4 4 5 7 8 8 8 8 8 9 9 8 8 6
9 10 10 10 11 11 10 8 8 8 9 9 10 12 14 16 17 13 9 9 13 10 8 9 7 6 6 6 5 4 3 4 5 6 6 8 9 10 9 9 9 9 8
9 9 9 9 10 9 8 7 6 7 8 8 9 11 14 14 16 14 10 10 12 10 9 9 8 6 6 6 5 3 2 3 4 5 6 6 8 10 10 10 9 9 9
8 8 8 8 9 8 7 8 8 8 8 8 9 12 15 15 15 14 11 11 11 11 11 11 7 8 5 5 4 1 2 2 4 4 4 4 5 8 10 10 10 9 9
8 9 9 10 9 9 8 8 7 7 7 8 8 11 14 14 15 14 14 12 12 11 12 11 9 7 5 6 5 4 1 2 3 4 4 5 6 5 6 9 10 10 9
7 7 9 10 10 9 8 6 5 4 4 6 8 9 11 13 14 13 15 12 12 12 12 12 12 10 8 6 5 5 4 5 3 3 4 5 5 5 5 6 9 10 10
8 7 8 9 9 9 9 8 9 8 8 8 8 8 10 12 13 13 14 14 13 11 12 13 11 8 10 8 5 3 3 4 3 2 2 3 4 6 6 5 6 8 9
6 6 6 8 8 8 9 10 10 8 7 5 7 9 9 10 12 13 13 14 14 12 13 13 11 11 9 9 7 4 3 2 2 3 3 2 2 4 5 5 5 6 8
4 4 4 6 7 7 8 9 10 10 8 8 9 10 9 8 9 13 12 13 14 12 13 13 12 13 11 9 7 6 5 4 4 4 4 4 3 3 3 3 4 5 7
Wind_Direction
183 172 174 170 164 160 157 154 151 149 146 143 141 138 136 135 134 132 131 130 128 125 122 120 117 114 112 109 108 105 102 99 97 94 95 95 95 95 92 87 83 80 82
165 168 171 169 167 164 161 158 155 152 150 147 145 144 141 139 138 137 135 134 132 129 126 124 121 118 116 114 112 109 105 101 100 97 94 94 98 97 95 93 89 85 83
157 166 169 169 168 166 164 161 158 156 155 153 150 148 146 144 142 140 139 138 136 132 130 127 124 121 119 118 116 112 109 106 104 101 94 86 97 98 96 91 89 85 83
158 165 169 171 170 168 167 165 163 161 159 157 155 153 150 149 147 145 143 141 139 136 133 130 127 124 122 121 119 115 111 111 108 105 91 85 94 100 96 92 90 84 83
158 166 173 173 172 171 170 168 167 165 163 160 158 157 155 153 151 149 146 144 141 138 135 133 131 128 126 125 120 116 113 113 112 105 95 90 93 100 96 92 89 85 84
159 167 174 176 175 174 172 172 170 169 168 164 163 161 161 158 155 152 150 147 144 142 139 137 135 133 131 128 123 118 116 114 112 106 99 95 96 101 98 96 92 89 88
158 169 174 177 179 178 176 175 174 172 172 170 168 166 165 163 159 156 154 151 148 147 145 142 140 139 136 133 127 121 118 118 116 111 105 101 104 105 104 102 96 93 91
160 167 175 178 180 180 179 178 177 176 175 174 174 172 169 166 163 160 157 155 153 152 149 148 145 144 142 139 132 125 120 120 120 115 112 114 116 112 108 104 100 95 92
168 167 179 180 180 182 182 181 180 178 178 177 176 176 173 169 166 164 161 159 158 156 154 153 151 149 147 145 138 128 123 123 123 123 122 124 123 119 113 108 105 100 94
174 171 184 184 182 180 181 182 181 180 180 180 179 176 174 171 169 167 164 162 162 160 158 157 156 154 151 148 141 129 125 125 126 127 129 133 129 123 119 115 111 105 98
200 191 187 184 185 182 182 183 180 182 183 181 179 174 170 170 168 166 164 164 164 163 161 161 160 157 154 151 144 134 127 129 132 135 144 146 142 136 128 123 119 114 106
214 209 194 186 185 184 188 180 178 181 180 178 174 170 166 163 163 165 164 166 166 165 165 165 164 160 151 145 145 136 133 139 142 150 160 157 153 149 145 141 133 127 119
214 217 206 193 185 184 185 182 175 172 173 173 171 167 164 160 160 160 161 165 165 164 163 166 162 153 151 152 149 144 148 149 157 163 169 166 164 165 163 160 152 148 143
216 220 215 199 190 188 185 187 182 179 177 178 175 170 166 166 165 165 164 163 162 163 161 159 156 157 161 166 163 157 158 162 171 174 181 176 177 179 176 173 169 167 165
222 218 218 204 192 188 186 190 190 188 184 183 179 177 173 172 172 172 170 168 168 167 166 164 163 165 169 174 174 167 166 174 178 180 184 183 184 188 188 186 187 188 189
224 218 216 204 194 187 189 194 192 190 187 185 183 183 179 177 174 175 174 171 173 173 172 172 171 168 171 172 177 176 172 178 183 185 188 191 193 198 202 203 203 206 213
226 221 218 206 194 190 191 193 194 193 191 190 187 185 184 180 177 178 179 176 177 175 171 169 168 164 167 172 180 180 172 179 184 189 193 197 203 208 212 213 213 218 227
222 222 217 212 198 194 192 194 196 195 195 195 189 187 187 185 179 178 183 182 177 173 168 167 168 166 172 173 176 184 177 176 186 193 197 201 206 211 217 221 222 226 234
222 217 216 211 198 195 192 194 197 195 200 196 191 188 189 188 183 179 185 186 176 172 171 174 172 167 170 174 176 180 183 185 190 195 199 207 211 212 215 221 226 228 234
222 211 218 211 197 193 191 192 194 196 201 199 194 191 187 188 185 181 181 186 177 173 173 172 168 167 167 170 169 170 198 204 195 201 208 211 214 214 214 217 222 230 235
220 208 216 213 199 190 189 189 192 198 199 201 201 192 188 188 186 183 181 182 180 178 177 171 163 165 165 152 131 125 322 259 225 218 209 207 215 215 213 216 219 224 232
221 210 211 209 199 198 198 197 197 196 199 201 199 192 189 189 189 187 182 183 183 177 174 173 162 163 167 164 151 143 207 301 268 231 213 212 218 215 215 218 217 219 223
223 218 219 208 200 200 200 193 191 188 185 199 201 196 193 190 192 190 184 181 184 179 179 177 174 169 174 180 167 156 167 214 246 267 229 221 216 213 220 220 218 220 220
228 226 214 206 202 201 198 192 191 197 203 208 203 197 192 190 190 190 186 183 184 183 179 181 179 174 170 179 185 191 175 156 166 236 278 242 223 222 223 221 217 218 217
235 221 217 210 207 200 201 197 197 204 205 200 196 192 192 193 190 189 189 184 182 186 183 181 178 177 178 180 180 173 178 176 164 172 231 255 255 239 226 218 213 214 216
249 229 224 214 212 207 205 204 203 204 198 192 199 196 194 197 194 192 191 187 183 186 186 185 184 183 186 184 183 179 171 171 185 182 210 225 233 250 233 217 213 216 215
Height
1481 1483 1485 1487 1490 1492 1493 1495 1497 1499 1501 1503 1505 1506 1508 1509 1510 1511 1513 1514 1514 1515 1516 1517 1518 1518 1519 1519 1520 1520 1520 1520 1520 1520 1520 1520 1520 1520 1520 1520 1520 1520 1520
1480 1482 1484 1486 1489 1491 1493 1495 1497 1499 1501 1503 1504 1506 1507 1509 1510 1511 1512 1513 1514 1515 1516 1517 1518 1518 1519 1519 1520 1520 1520 1520 1520 1520 1521 1521 1521 1521 1521 1521 1521 1521 1521
1480 1481 1483 1485 1488 1491 1493 1494 1496 1498 1500 1502 1504 1505 1507 1508 1510 1511 1512 1513 1514 1515 1516 1517 1518 1518 1519 1519 1520 1520 1521 1521 1521 1521 1521 1522 1522 1522 1522 1522 1522 1522 1522
1479 1481 1482 1485 1487 1490 1492 1494 1496 1497 1500 1501 1503 1505 1506 1508 1509 1510 1511 1513 1514 1515 1516 1517 1518 1518 1519 1520 1520 1521 1521 1521 1522 1522 1522 1523 1523 1524 1524 1523 1523 1523 1523
1479 1480 1482 1484 1486 1488 1491 1493 1494 1496 1498 1500 1502 1504 1505 1507 1508 1509 1511 1512 1513 1514 1515 1516 1517 1518 1519 1520 1521 1521 1521 1522 1522 1523 1523 1524 1524 1525 1524 1524 1524 1524 1524
1478 1479 1481 1483 1485 1487 1489 1491 1493 1495 1497 1499 1501 1503 1504 1506 1507 1509 1510 1511 1513 1514 1515 1516 1517 1518 1519 1520 1521 1521 1522 1522 1523 1523 1524 1524 1525 1525 1525 1525 1525 1525 1524
1476 1478 1480 1482 1484 1486 1488 1490 1492 1493 1495 1497 1499 1501 1503 1504 1506 1508 1509 1511 1512 1513 1514 1516 1517 1518 1519 1520 1521 1521 1522 1523 1523 1524 1524 1525 1525 1526 1526 1526 1525 1525 1525
1473 1475 1478 1481 1483 1484 1486 1488 1490 1492 1493 1495 1498 1499 1501 1503 1504 1506 1508 1510 1511 1512 1514 1515 1517 1518 1519 1520 1521 1521 1522 1523 1524 1524 1525 1526 1526 1526 1526 1526 1526 1526 1525
1472 1473 1475 1478 1480 1482 1484 1486 1488 1489 1491 1493 1495 1497 1499 1501 1503 1505 1506 1508 1510 1511 1513 1514 1516 1517 1518 1520 1521 1521 1522 1523 1524 1525 1525 1526 1526 1527 1526 1526 1526 1526 1525
1470 1471 1473 1475 1477 1479 1481 1483 1485 1487 1489 1491 1493 1495 1497 1499 1501 1503 1505 1506 1508 1510 1512 1513 1515 1516 1518 1519 1520 1521 1522 1523 1524 1525 1525 1526 1526 1527 1526 1526 1526 1526 1525
1466 1468 1470 1472 1474 1476 1478 1480 1482 1484 1486 1488 1490 1492 1494 1496 1498 1500 1502 1504 1507 1509 1510 1512 1514 1515 1517 1519 1520 1521 1522 1523 1524 1525 1525 1526 1526 1526 1526 1526 1526 1525 1525
1462 1464 1466 1468 1470 1472 1475 1477 1479 1481 1483 1485 1487 1489 1491 1493 1495 1498 1500 1502 1505 1507 1509 1511 1513 1514 1516 1518 1519 1520 1521 1522 1524 1524 1525 1525 1526 1526 1526 1526 1525 1525 1524
1458 1459 1461 1464 1466 1468 1470 1472 1474 1476 1479 1481 1483 1485 1488 1490 1492 1495 1497 1500 1502 1504 1507 1509 1511 1513 1515 1516 1518 1519 1521 1522 1523 1524 1524 1525 1525 1525 1525 1525 1525 1524 1524
1454 1455 1456 1459 1461 1464 1466 1468 1470 1472 1474 1476 1479 1481 1484 1486 1488 1491 1494 1496 1499 1501 1504 1507 1509 1511 1513 1515 1517 1518 1519 1521 1522 1523 1523 1524 1524 1525 1524 1524 1524 1524 1523
1448 1449 1451 1453 1456 1458 1461 1463 1465 1468 1470 1472 1474 1477 1480 1482 1484 1487 1490 1493 1495 1498 1501 1504 1507 1509 1511 1513 1515 1517 1518 1519 1520 1521 1522 1523 1523 1523 1523 1523 1523 1523 1522
1444 1445 1446 1448 1450 1453 1455 1458 1460 1463 1466 1468 1470 1473 1476 1478 1480 1483 1486 1489 1492 1495 1498 1501 1504 1507 1509 1511 1513 1515 1516 1518 1519 1520 1521 1521 1522 1522 1522 1522 1522 1522 1521
1439 1440 1441 1443 1445 1447 1450 1453 1455 1458 1461 1463 1465 1468 1471 1474 1476 1479 1482 1484 1488 1491 1495 1499 1502 1505 1507 1509 1511 1513 1515 1516 1517 1518 1519 1519 1520 1520 1520 1521 1520 1520 1520
1434 1435 1436 1438 1439 1441 1444 1447 1450 1453 1455 1458 1460 1463 1466 1470 1472 1475 1477 1480 1484 1487 1491 1495 1498 1501 1504 1506 1508 1511 1512 1514 1515 1516 1517 1517 1518 1518 1519 1519 1519 1518 1518
1428 1430 1431 1432 1434 1436 1438 1442 1445 1447 1450 1452 1455 1458 1461 1465 1467 1470 1473 1476 1479 1483 1486 1490 1494 1498 1501 1504 1506 1508 1510 1511 1513 1514 1514 1515 1516 1516 1516 1516 1516 1516 1516
1423 1424 1426 1427 1429 1431 1434 1437 1439 1442 1444 1447 1449 1452 1456 1459 1462 1465 1469 1472 1475 1478 1482 1486 1490 1494 1498 1501 1504 1506 1508 1509 1510 1511 1512 1513 1513 1513 1514 1514 1514 1513 1513
1418 1419 1420 1421 1423 1426 1428 1430 1432 1435 1438 1441 1443 1446 1450 1454 1457 1460 1463 1466 1469 1472 1476 1481 1485 1490 1494 1498 1501 1503 1505 1506 1507 1508 1509 1509 1510 1510 1511 1511 1511 1511 1510
1413 1414 1415 1417 1418 1421 1423 1425 1427 1430 1432 1435 1438 1440 1444 1448 1451 1454 1457 1461 1464 1468 1472 1476 1480 1485 1489 1493 1496 1499 1501 1503 1502 1504 1505 1506 1506 1507 1507 1508 1508 1507 1507
1408 1408 1410 1412 1414 1415 1418 1420 1423 1425 1427 1430 1432 1434 1438 1442 1445 1448 1451 1456 1459 1462 1466 1470 1475 1479 1483 1488 1492 1494 1496 1496 1498 1500 1500 1502 1503 1503 1504 1504 1504 1504 1504
1404 1405 1406 1408 1409 1411 1413 1414 1416 1418 1419 1422 1426 1428 1432 1436 1440 1444 1447 1450 1454 1458 1461 1466 1471 1474 1479 1482 1487 1489 1492 1492 1494 1495 1497 1498 1499 1500 1500 1501 1501 1501 1500
1400 1401 1402 1404 1404 1406 1408 1409 1411 1413 1415 1418 1422 1424 1426 1430 1434 1439 1442 1445 1448 1453 1456 1461 1465 1470 1473 1477 1480 1484 1487 1488 1489 1490 1491 1493 1494 1495 1496 1497 1497 1497 1497
1397 1398 1398 1399 1400 1401 1403 1404 1406 1407 1410 1413 1416 1418 1421 1425 1429 1433 1436 1439 1443 1448 1451 1456 1460 1464 1468 1472 1476 1479 1481 1483 1484 1486 1487 1488 1490 1491 1492 1493 1493 1493 1493